OPS 4682 DEB, 38417

Orbit data source: Space-Track

OPS 4682 DEB, 38417 is space debris in LEO originally from a launch on Sat, 03 Apr 1965 UTC launched from the Air Force Western Test Range (AFWTR). Debris objects in space refer to the collection of defunct objects orbiting the Earth. Examples of debris include non-operational satellites, rocket bodies, and fragments generated from explosions, collisions, or faulty payload assembly.

Loading next visibility...
Identifier
38417, 1965-027DW
Orbit
LEO
Country
Flag of USUS
Related business
Manufacturer
Unknown
Mission
Spacecraft
Bus & Motor
Unknown
Mass
Unknown
Launch date (UTC)
1965-04-03 (61 years ago)
Launch vehicle
Unknown
Launch site
Air Force Western Test Range (AFWTR)
Object type
Payload
Rocket body
Debris
Shape & HBR
Unknown shape, 0.1 m
Radar Cross Section
Small (<0.1 m²)

Expand to show TLE details & history
Last TLE update: 1 day ago

TLE from 1 day ago
0 OPS 4682 DEB
1 38417U 65027DW  25340.51510901  .00000428  00000-0  14651-2 0  9992
2 38417  90.2443   7.9123 0031657 291.0001  68.7733 12.96578931581711
Epoch: 2025-12-06T12:21Z
TLE epoch observation values (Epoch: 2025-12-06T12:21:45.418Z)
Latitude
-0.00007°
Longitude
106.93132°
Altitude
1,269.691 km
Speed
7.225 km/s
True Right ascension
00h 31m 38s
True Declination
0° 00' 00"
Sunlit
Object was in daylight at epoch
Visualization orbit readout
Latitude
Unknown
Longitude
Unknown
Altitude
Unknown
Speed
Unknown
Apparent Right ascension
Unknown
Apparent Declination
Unknown
Sunlit
N/A
Visualization observer readout
Local Sidereal Time
20:14:04
Azimuth
Unknown
Elevation
Unknown
Doppler factor
Unknown
Orbital elements
Apogee altitude
1,296.872 km
Perigee altitude
1,248.432 km
Semi-major axis
7,650.789 km
Eccentricity
0.00317
Inclination
90.2443°
RAAN
7.9123°
Arg. of periapsis
291.0001°
True anomaly
69.11193°
Mean anomaly
68.7733°
Eccentric anomaly
68.94257°
Mean motion
3.24328 °/min
Orbital period
111 mins
BSTAR
0.0014651
Loading maneuver chart data...
Computing Atmospheric mass density...
Loading historical data...
Loading historical data...
Loading historical data...
Loading historical data...
Loading historical data...
Loading historical data...
Loading historical data...

Documentation

Showing up to 5 results
|